Date,TemperatureHighF,TemperatureAvgF,TemperatureLowF,DewpointHighF,DewpointAvgF,DewpointLowF,HumidityHigh,HumidityAvg,HumidityLow,PressureMaxIn,PressureMinIn,WindSpeedMaxMPH,WindSpeedAvgMPH,GustSpeedMaxMPH,PrecipitationSumIn
2013-3-1,55,41,22,23,18,8,61,41,26,30.79,30.64,8,2,15,0.00
2013-3-2,64,46,30,29,23,16,79,45,16,30.67,30.43,7,1,12,0.00
2013-3-3,52,40,26,28,24,22,87,57,35,30.43,30.25,7,1,13,0.00
2013-3-4,55,42,29,30,25,21,78,53,37,30.40,30.15,9,1,10,0.00
2013-3-5,54,40,28,28,23,16,82,54,26,30.52,30.36,5,1,10,0.00
2013-3-6,57,41,27,30,25,22,88,58,30,30.37,30.22,9,2,16,0.00
2013-3-7,54,41,26,27,24,22,85,56,31,30.27,30.15,10,2,19,0.00
2013-3-8,42,32,25,33,28,23,93,85,52,30.16,29.88,6,1,14,0.09
2013-3-9,30,27,24,28,26,23,94,93,91,30.50,30.17,9,1,10,0.03
2013-3-10,45,34,23,31,24,15,93,69,36,30.61,30.49,8,2,17,0.42
2013-3-11,54,39,23,27,20,14,76,50,30,30.57,30.41,5,1,12,0.36
2013-3-12,59,43,27,28,24,18,79,50,26,30.52,30.43,8,2,16,0.36
2013-3-13,64,48,31,29,25,22,75,45,24,30.56,30.46,8,1,11,0.00
2013-3-14,70,52,34,31,24,17,70,39,13,30.51,30.37,7,1,13,0.00
2013-3-15,68,48,35,34,25,-100,74,47,21,30.40,30.01,7,-34,11,0.00
2013-3-16,64,46,34,37,30,26,83,59,26,30.03,29.84,8,1,17,0.00
2013-3-17,64,45,29,32,18,-6,88,47,7,30.03,29.89,8,1,16,0.00
2013-3-18,62,44,28,28,20,13,73,45,18,30.11,30.01,6,1,13,0.00
2013-3-19,59,45,32,33,26,22,77,52,25,30.21,30.03,4,0,9,0.00
2013-3-20,59,47,32,32,28,23,73,51,34,30.21,29.94,12,2,17,0.00
2013-3-21,63,47,31,33,26,7,84,51,12,29.93,29.77,14,1,16,0.00
2013-3-22,58,44,28,32,16,-14,81,42,7,29.90,29.76,9,2,17,0.00
2013-3-23,51,36,27,9,-8,-100,46,20,7,30.13,29.89,11,-64,21,0.00
2013-3-24,56,37,21,14,6,-100,56,32,17,30.21,30.07,7,-33,14,0.00
2013-3-25,59,44,30,21,12,-100,60,30,19,30.16,30.02,10,-9,10,0.00
2013-3-26,59,45,28,25,20,17,72,41,20,30.11,29.97,10,2,17,0.00
2013-3-27,60,44,28,26,20,16,69,43,22,30.11,29.99,9,1,19,0.00
2013-3-28,60,43,27,26,22,20,76,49,24,30.23,30.11,8,1,14,0.00
2013-3-29,65,48,32,32,26,24,73,47,23,30.25,30.12,8,1,10,0.00
2013-3-30,62,49,34,35,28,24,70,47,26,30.20,30.08,6,1,12,0.00
2013-3-31,65,49,33,34,28,25,78,49,26,30.13,29.99,8,1,16,0.00